When you browse on this site, cookies collect data to enhance your experience and personalize the content and advertising you see.
Visit our Privacy Policy to learn more. By continuing to use the site, you agree to this use of cookies and data.
  • In Spain
  • List of Countries
  • For 7 days
  • Water Temperature
  • Satellite Maps
  • Weather Map
  • Weather Widgets
  • user-avatar
    Login

    Hourly Weather Burajda

    Today, 18 February, Monday

    Time Temperature Precipitation Wind Pressure Humidity
    00:00 +14°C° 0 mm 4 mps 709 mmHg 31%
    01:00 +13°C° 0 mm 4 mps 708 mmHg 32%
    02:00 +13°C° 0 mm 4 mps 708 mmHg 34%
    03:00 +12°C° 0 mm 4 mps 707 mmHg 36%
    04:00 +12°C° 0 mm 4 mps 707 mmHg 37%
    05:00 +12°C° 0 mm 4 mps 707 mmHg 38%
    06:00 +11°C° 0 mm 4 mps 707 mmHg 39%
    07:00 +12°C° 0 mm 4 mps 707 mmHg 37%
    08:00 +13°C° 0 mm 5 mps 707 mmHg 34%
    09:00 +14°C° 0 mm 6 mps 707 mmHg 31%
    10:00 +16°C° 0 mm 6 mps 707 mmHg 28%
    11:00 +17°C° 0 mm 7 mps 706 mmHg 25%
    12:00 +20°C° 0 mm 7 mps 706 mmHg 22%
    13:00 +21°C° 0 mm 7 mps 705 mmHg 21%
    14:00 +21°C° 0 mm 6 mps 704 mmHg 21%
    15:00 +22°C° 0 mm 6 mps 704 mmHg 20%
    16:00 +22°C° 0 mm 5 mps 703 mmHg 21%
    17:00 +22°C° 0 mm 4 mps 702 mmHg 23%
    18:00 +22°C° 0 mm 3 mps 702 mmHg 24%
    19:00 +21°C° 0 mm 4 mps 702 mmHg 23%
    20:00 +20°C° 0 mm 4 mps 702 mmHg 22%
    21:00 +19°C° 0 mm 4 mps 702 mmHg 20%
    22:00 +18°C° 0 mm 4 mps 702 mmHg 23%
    23:00 +17°C° 0 mm 4 mps 702 mmHg 25%

    Tomorrow, 19 February, Tuesday

    Time Temperature Precipitation Wind Pressure Humidity
    00:00 +15°C° 0 mm 4 mps 702 mmHg 28%
    01:00 +14°C° 0 mm 4 mps 702 mmHg 31%
    02:00 +13°C° 0 mm 4 mps 701 mmHg 33%
    03:00 +12°C° 0 mm 5 mps 701 mmHg 36%
    04:00 +12°C° 0 mm 5 mps 702 mmHg 41%
    05:00 +10°C° 0 mm 6 mps 702 mmHg 45%
    06:00 +9°C° 0 mm 7 mps 703 mmHg 49%
    07:00 +10°C° 0 mm 8 mps 704 mmHg 51%
    08:00 +10°C° 0 mm 9 mps 705 mmHg 52%
    09:00 +9°C° 0 mm 10 mps 706 mmHg 53%
    10:00 +9°C° 0 mm 10 mps 706 mmHg 56%
    11:00 +9°C° 0 mm 10 mps 707 mmHg 58%
    12:00 +9°C° 0 mm 10 mps 708 mmHg 60%
    13:00 +10°C° 0 mm 9 mps 708 mmHg 55%
    14:00 +11°C° 0 mm 7 mps 708 mmHg 50%
    15:00 +13°C° 0 mm 6 mps 708 mmHg 45%
    16:00 +13°C° 0 mm 5 mps 708 mmHg 44%
    17:00 +12°C° 0 mm 5 mps 708 mmHg 44%
    18:00 +12°C° 0 mm 4 mps 708 mmHg 43%
    19:00 +12°C° 0 mm 3 mps 709 mmHg 45%
    20:00 +12°C° 0 mm 2 mps 709 mmHg 46%
    21:00 +12°C° 0 mm 1 mps 710 mmHg 48%
    22:00 +12°C° 0 mm 1 mps 710 mmHg 48%
    23:00 +10°C° 0 mm 2 mps 710 mmHg 49%

    Day after tomorrow, 20 February, Wednesday

    Time Temperature Precipitation Wind Pressure Humidity
    00:00 +10°C° 0 mm 2 mps 710 mmHg 50%
    01:00 +10°C° 0 mm 2 mps 710 mmHg 51%
    02:00 +9°C° 0 mm 3 mps 710 mmHg 52%
    03:00 +9°C° 0 mm 3 mps 709 mmHg 53%
    04:00 +9°C° 0 mm 3 mps 710 mmHg 52%
    05:00 +9°C° 0 mm 3 mps 710 mmHg 50%
    06:00 +8°C° 0 mm 2 mps 710 mmHg 49%
    07:00 +10°C° 0 mm 3 mps 710 mmHg 45%
    08:00 +11°C° 0 mm 3 mps 711 mmHg 41%
    09:00 +12°C° 0 mm 3 mps 712 mmHg 37%
    10:00 +13°C° 0 mm 3 mps 712 mmHg 33%
    11:00 +15°C° 0 mm 2 mps 712 mmHg 29%
    12:00 +17°C° 0 mm 2 mps 711 mmHg 25%
    13:00 +17°C° 0 mm 2 mps 711 mmHg 24%
    14:00 +18°C° 0 mm 2 mps 710 mmHg 23%
    15:00 +19°C° 0 mm 1 mps 710 mmHg 22%
    16:00 +19°C° 0 mm 1 mps 710 mmHg 22%
    17:00 +17°C° 0 mm 2 mps 710 mmHg 23%
    18:00 +17°C° 0 mm 2 mps 710 mmHg 24%
    19:00 +17°C° 0 mm 2 mps 710 mmHg 26%
    20:00 +16°C° 0 mm 2 mps 711 mmHg 28%
    21:00 +15°C° 0 mm 2 mps 711 mmHg 29%
    22:00 +15°C° 0 mm 2 mps 711 mmHg 30%
    23:00 +14°C° 0 mm 2 mps 711 mmHg 31%

    21 February, Thursday

    Time Temperature Precipitation Wind Pressure Humidity
    00:00 +14°C° 0 mm 2 mps 711 mmHg 32%
    01:00 +14°C° 0 mm 2 mps 710 mmHg 33%
    02:00 +13°C° 0 mm 2 mps 710 mmHg 34%
    03:00 +13°C° 0 mm 2 mps 709 mmHg 34%
    04:00 +12°C° 0 mm 2 mps 709 mmHg 35%
    05:00 +12°C° 0 mm 2 mps 709 mmHg 36%
    06:00 +12°C° 0 mm 2 mps 710 mmHg 36%
    07:00 +13°C° 0 mm 2 mps 710 mmHg 33%
    08:00 +13°C° 0 mm 3 mps 711 mmHg 31%
    09:00 +14°C° 0 mm 3 mps 711 mmHg 28%
    10:00 +17°C° 0 mm 3 mps 711 mmHg 25%
    11:00 +18°C° 0 mm 3 mps 711 mmHg 22%
    12:00 +19°C° 0 mm 3 mps 711 mmHg 19%
    13:00 +19°C° 0 mm 2 mps 710 mmHg 18%
    14:00 +20°C° 0 mm 2 mps 710 mmHg 17%
    15:00 +20°C° 0 mm 2 mps 709 mmHg 16%
    16:00 +20°C° 0 mm 2 mps 709 mmHg 17%
    17:00 +20°C° 0 mm 2 mps 709 mmHg 18%
    18:00 +19°C° 0 mm 2 mps 709 mmHg 19%
    19:00 +19°C° 0 mm 2 mps 709 mmHg 20%
    20:00 +18°C° 0 mm 3 mps 709 mmHg 21%
    21:00 +17°C° 0 mm 4 mps 710 mmHg 21%
    22:00 +17°C° 0 mm 4 mps 709 mmHg 22%
    23:00 +15°C° 0 mm 5 mps 709 mmHg 23%

    22 February, Friday

    Time Temperature Precipitation Wind Pressure Humidity
    00:00 +15°C° 0 mm 5 mps 709 mmHg 24%
    01:00 +14°C° 0 mm 5 mps 708 mmHg 26%
    02:00 +14°C° 0 mm 5 mps 708 mmHg 27%
    03:00 +13°C° 0 mm 5 mps 707 mmHg 29%
    04:00 +13°C° 0 mm 5 mps 708 mmHg 30%
    05:00 +12°C° 0 mm 5 mps 708 mmHg 30%
    06:00 +12°C° 0 mm 4 mps 708 mmHg 31%
    07:00 +13°C° 0 mm 5 mps 708 mmHg 28%
    08:00 +15°C° 0 mm 6 mps 708 mmHg 25%
    09:00 +16°C° 0 mm 7 mps 709 mmHg 22%
    10:00 +18°C° 0 mm 7 mps 708 mmHg 21%
    11:00 +21°C° 0 mm 7 mps 708 mmHg 19%
    12:00 +23°C° 0 mm 7 mps 708 mmHg 17%
    13:00 +24°C° 0 mm 7 mps 707 mmHg 16%
    14:00 +26°C° 0 mm 6 mps 706 mmHg 14%
    15:00 +27°C° 0 mm 6 mps 706 mmHg 12%
    16:00 +26°C° 0 mm 5 mps 706 mmHg 13%
    17:00 +25°C° 0 mm 4 mps 705 mmHg 13%
    18:00 +22°C° 0 mm 3 mps 705 mmHg 14%
    19:00 +21°C° 0 mm 3 mps 705 mmHg 16%
    20:00 +20°C° 0 mm 3 mps 706 mmHg 18%
    21:00 +19°C° 0 mm 3 mps 706 mmHg 20%
    22:00 +18°C° 0 mm 3 mps 706 mmHg 22%
    23:00 +18°C° 0 mm 3 mps 706 mmHg 25%

    23 February, Saturday

    Time Temperature Precipitation Wind Pressure Humidity
    00:00 +17°C° 0 mm 3 mps 706 mmHg 28%
    01:00 +16°C° 0 mm 3 mps 705 mmHg 30%
    02:00 +14°C° 0 mm 3 mps 705 mmHg 31%
    03:00 +14°C° 0 mm 3 mps 705 mmHg 32%
    04:00 +13°C° 0 mm 3 mps 705 mmHg 33%
    05:00 +13°C° 0 mm 3 mps 706 mmHg 34%
    06:00 +12°C° 0 mm 3 mps 706 mmHg 36%
    07:00 +13°C° 0 mm 3 mps 707 mmHg 34%
    08:00 +14°C° 0 mm 3 mps 707 mmHg 33%
    09:00 +15°C° 0 mm 4 mps 708 mmHg 31%
    10:00 +18°C° 0 mm 3 mps 708 mmHg 27%
    11:00 +19°C° 0 mm 3 mps 708 mmHg 23%
    12:00 +21°C° 0 mm 3 mps 708 mmHg 19%
    13:00 +22°C° 0 mm 3 mps 707 mmHg 17%
    14:00 +24°C° 0 mm 3 mps 707 mmHg 15%
    15:00 +24°C° 0 mm 3 mps 706 mmHg 14%
    16:00 +24°C° 0 mm 3 mps 706 mmHg 15%
    17:00 +22°C° 0 mm 3 mps 707 mmHg 16%
    18:00 +21°C° 0 mm 3 mps 707 mmHg 17%
    19:00 +20°C° 0 mm 3 mps 707 mmHg 19%
    20:00 +19°C° 0 mm 3 mps 707 mmHg 21%
    21:00 +18°C° 0 mm 3 mps 707 mmHg 23%
    22:00 +18°C° 0 mm 3 mps 707 mmHg 24%
    23:00 +17°C° 0 mm 3 mps 706 mmHg 24%
    Show more